Date String (YYYY-MM-DD hh:mm:ss) UTC,Instrument flags,Ambient pressure (hPa),Sample flow (lpm),Bypass flow (lpm),Sample temperature (°C),Ambient temperature (°C),ASC tube jacket temperature (°C),LED temperature (°C),Box temperature (°C),Sample RH (%),Span deviation,Mass concentration (μg/m³),Mass concentration (μg/m³),Mass concentration (μg/m³)
DateTimeUTC,F1_M11,P_M11,Q1_M11,Q2_M11,T1_M11,T2_M11,T3_M11,T4_M11,T5_M11,U1_M11,ZSPAN_M11,X0_M11,X2_M11,X1_M11
2022-05-26 14:00:00,,0827.7,5.00,0.00,28.3,27.2,00.0,37.2,30.1,16.8,0000.0,0004.44,0003.13,0002.53
2022-05-26 14:01:00,,0827.4,5.00,0.00,28.3,27.2,00.0,37.2,30.1,16.9,0000.0,0004.44,0003.12,0002.55
2022-05-26 14:02:00,,0827.7,5.01,0.00,28.3,27.3,00.0,37.2,30.2,16.0,0000.0,0004.58,0003.13,0002.56
2022-05-26 14:03:00,,0827.7,5.01,0.00,28.3,27.3,00.0,37.2,30.2,16.1,0000.0,0005.32,0003.16,0002.59
2022-05-26 14:04:00,,0827.7,5.00,0.00,28.3,27.3,00.0,37.2,30.2,15.7,0000.0,0005.37,0003.17,0002.61
2022-05-26 14:05:00,,0827.4,5.00,0.00,28.3,27.3,00.0,37.2,30.2,14.8,0000.0,0005.38,0003.18,0002.62
2022-05-26 14:06:00,,0827.2,4.99,0.00,28.3,27.3,00.0,37.2,30.2,16.1,0000.0,0005.23,0003.16,0002.65
2022-05-26 14:07:00,,0827.2,5.00,0.00,28.3,27.3,00.0,37.2,30.2,16.2,0000.0,0005.42,0003.20,0002.66
2022-05-26 14:08:00,,0827.2,5.00,0.00,28.3,27.3,00.0,37.2,30.2,15.4,0000.0,0005.45,0003.20,0002.66
2022-05-26 14:09:00,,0827.3,5.00,0.00,28.3,27.3,00.0,37.2,30.2,15.6,0000.0,0005.48,0003.20,0002.65
2022-05-26 14:10:00,,0827.2,5.01,0.00,28.3,27.3,00.0,37.2,30.2,15.8,0000.0,0005.63,0003.21,0002.65
2022-05-26 14:11:00,,0827.2,4.99,0.00,28.3,27.3,00.0,37.2,30.2,15.3,0000.0,0005.66,0003.20,0002.63
2022-05-26 14:12:00,,0827.3,5.00,0.00,28.3,27.4,00.0,37.2,30.2,15.2,0000.0,0005.66,0003.19,0002.62
2022-05-26 14:13:00,,0827.2,5.01,0.00,28.4,27.4,00.0,37.2,30.2,15.6,0000.0,0005.71,0003.20,0002.62
2022-05-26 14:14:00,,0827.2,5.00,0.00,28.4,27.4,00.0,37.2,30.2,15.4,0000.0,0005.13,0003.20,0002.60
2022-05-26 14:15:00,,0827.2,5.00,0.00,28.4,27.4,00.0,37.2,30.3,15.3,0000.0,0006.52,0003.19,0002.59
2022-05-26 14:16:00,,0827.2,4.99,0.00,28.4,27.4,00.0,37.2,30.3,14.9,0000.0,0006.48,0003.17,0002.58
2022-05-26 14:17:00,,0827.3,5.00,0.00,28.4,27.4,00.0,37.3,30.3,15.9,0000.0,0006.56,0003.18,0002.57
2022-05-26 14:18:00,,0827.5,5.00,0.00,28.4,27.5,00.0,37.3,30.3,16.0,0000.0,0006.49,0003.16,0002.57
2022-05-26 14:19:00,,0827.3,5.01,0.00,28.4,27.5,00.0,37.3,30.3,16.0,0000.0,0006.42,0003.16,0002.58
2022-05-26 14:20:00,,0827.4,4.99,0.00,28.4,27.5,00.0,37.3,30.3,16.1,0000.0,0006.78,0003.17,0002.59
2022-05-26 14:21:00,,0827.6,5.01,0.00,28.4,27.5,00.0,37.3,30.3,17.9,0000.0,0006.89,0003.16,0002.59
2022-05-26 14:22:00,,0827.5,5.00,0.00,28.4,27.5,00.0,37.3,30.4,17.6,0000.0,0006.92,0003.18,0002.60
2022-05-26 14:23:00,,0827.7,5.01,0.00,28.5,27.5,00.0,37.3,30.4,19.7,0000.0,0007.27,0003.20,0002.61
2022-05-26 14:24:00,,0827.8,5.01,0.00,28.5,27.6,00.0,37.3,30.4,19.3,0000.0,0007.79,0003.21,0002.64
2022-05-26 14:25:00,,0827.5,5.01,0.00,28.5,27.6,00.0,37.3,30.4,18.4,0000.0,0007.84,0003.22,0002.67
2022-05-26 14:26:00,,0827.7,5.00,0.00,28.5,27.6,00.0,37.3,30.4,18.7,0000.0,0007.00,0003.21,0002.68
2022-05-26 14:27:00,,0827.7,4.96,0.00,28.5,27.6,00.0,37.4,30.4,18.2,0000.0,0007.37,0003.23,0002.69
2022-05-26 14:28:00,,0827.3,5.00,0.00,28.5,27.6,00.0,37.4,30.4,17.5,0000.0,0007.45,0003.22,0002.69
2022-05-26 14:29:00,,0827.6,5.02,0.00,28.5,27.6,00.0,37.4,30.4,20.7,0000.0,0007.52,0003.23,0002.69
2022-05-26 14:30:00,,0827.7,5.01,0.00,28.6,27.7,00.0,37.4,30.5,22.7,0000.0,0007.67,0003.22,0002.70
2022-05-26 14:31:00,,0827.6,5.00,0.00,28.6,27.7,00.0,37.4,30.5,22.6,0000.0,0007.69,0003.25,0002.73
2022-05-26 14:32:00,,0827.6,5.00,0.00,28.6,27.7,00.0,37.4,30.5,22.6,0000.0,0007.91,0003.28,0002.76
2022-05-26 14:33:00,,0827.5,5.00,0.00,28.6,27.7,00.0,37.4,30.5,22.5,0000.0,0008.67,0003.30,0002.79
2022-05-26 14:34:00,,0827.5,4.99,0.00,28.6,27.7,00.0,37.4,30.5,22.5,0000.0,0009.49,0003.35,0002.83
2022-05-26 14:35:00,,0827.3,5.00,0.00,28.6,27.7,00.0,37.4,30.5,22.9,0000.0,0009.43,0003.40,0002.84
2022-05-26 14:36:00,,0827.2,5.01,0.00,28.6,27.7,00.0,37.5,30.5,23.3,0000.0,0009.97,0003.41,0002.87
2022-05-26 14:37:00,,0827.2,5.01,0.00,28.6,27.7,00.0,37.5,30.5,23.0,0000.0,0009.98,0003.42,0002.88
2022-05-26 14:38:00,,0827.2,5.00,0.00,28.7,27.8,00.0,37.5,30.6,22.5,0000.0,0009.76,0003.44,0002.91
2022-05-26 14:39:00,,0827.2,5.00,0.00,28.7,27.8,00.0,37.5,30.6,23.0,0000.0,0009.71,0003.48,0002.94
2022-05-26 14:40:00,,0827.2,5.00,0.00,28.7,27.8,00.0,37.5,30.6,23.0,0000.0,0010.31,0003.52,0002.98
2022-05-26 14:41:00,,0827.2,5.00,0.00,28.7,27.8,00.0,37.5,30.6,22.6,0000.0,0010.52,0003.52,0003.01
2022-05-26 14:42:00,,0827.2,4.99,0.00,28.7,27.8,00.0,37.5,30.6,22.4,0000.0,0010.39,0003.51,0003.01
2022-05-26 14:43:00,,0827.2,5.00,0.00,28.7,27.9,00.0,37.5,30.6,21.8,0000.0,0010.09,0003.52,0003.02
2022-05-26 14:44:00,,0827.3,5.00,0.00,28.7,27.9,00.0,37.6,30.7,22.3,0000.0,0009.33,0003.50,0003.03
2022-05-26 14:45:00,,0827.3,5.00,0.00,28.7,27.9,00.0,37.6,30.7,22.1,0000.0,0008.48,0003.49,0003.04
2022-05-26 14:46:00,,0827.3,4.99,0.00,28.8,27.9,00.0,37.6,30.7,21.8,0000.0,0008.11,0003.44,0003.04
2022-05-26 14:47:00,,0827.4,5.00,0.00,28.8,27.9,00.0,37.6,30.7,21.4,0000.0,0007.32,0003.44,0003.03
2022-05-26 14:48:00,,0827.3,5.01,0.00,28.8,27.9,00.0,37.6,30.7,21.3,0000.0,0007.45,0003.46,0003.05
2022-05-26 14:49:00,,0827.3,5.00,0.00,28.8,27.9,00.0,37.6,30.7,21.4,0000.0,0007.87,0003.50,0003.07
2022-05-26 14:50:00,,0827.4,5.00,0.00,28.8,27.9,00.0,37.6,30.7,21.3,0000.0,0008.00,0003.53,0003.08
2022-05-26 14:51:00,,0827.3,4.99,0.00,28.8,27.9,00.0,37.6,30.7,22.2,0000.0,0008.07,0003.52,0003.07
2022-05-26 14:52:00,,0827.3,5.00,0.00,28.8,28.0,00.0,37.7,30.7,21.5,0000.0,0008.07,0003.53,0003.08
2022-05-26 14:53:00,,0827.3,5.00,0.00,28.8,28.0,00.0,37.7,30.8,21.2,0000.0,0008.24,0003.55,0003.10
2022-05-26 14:54:00,,0827.3,4.99,0.00,28.9,28.0,00.0,37.7,30.8,21.4,0000.0,0008.28,0003.56,0003.11
2022-05-26 14:55:00,,0827.3,5.00,0.00,28.9,28.0,00.0,37.7,30.8,21.5,0000.0,0008.36,0003.59,0003.12
2022-05-26 14:56:00,,0827.3,5.01,0.00,28.9,28.0,00.0,37.7,30.8,21.2,0000.0,0008.38,0003.58,0003.12
2022-05-26 14:57:00,,0827.4,5.00,0.00,28.9,28.0,00.0,37.7,30.8,20.9,0000.0,0009.14,0003.60,0003.13
2022-05-26 14:58:00,,0827.4,5.00,0.00,28.9,28.1,00.0,37.7,30.8,21.2,0000.0,0009.24,0003.60,0003.13
2022-05-26 14:59:00,,0827.4,4.99,0.00,28.9,28.1,00.0,37.8,30.8,21.3,0000.0,0009.22,0003.61,0003.13
